RH
100 100 100 100 100 100 100 100 94 82 80 65 50 42 35 40 34 29 26 30 32 29 33 37 42 50 53 54 50 44 40 25 25 21 17 9 11 42
100 100 100 100 100 100 97 89 83 75 67 50 41 40 38 35 30 25 26 30 28 30 35 40 45 51 54 56 53 51 52 47 36 33 29 27 26 54
100 100 100 100 100 95 89 80 70 59 48 43 46 47 43 32 26 24 26 26 30 33 39 43 49 53 57 57 60 69 59 58 50 41 44 52 66 60
100 100 100 99 87 77 64 63 50 43 45 44 48 56 45 33 30 27 26 29 34 40 43 48 53 55 59 63 67 69 64 58 64 62 58 56 66 90
99 89 84 81 63 52 50 43 45 49 43 66 56 63 45 34 30 27 31 35 44 45 49 56 59 63 66 66 60 61 64 69 69 67 70 73 65 87
67 58 58 48 42 44 35 47 64 46 66 80 65 57 43 37 31 34 36 46 51 54 60 67 75 76 60 53 59 60 60 61 62 61 61 63 70 70
46 42 36 36 37 47 58 63 52 66 77 68 67 63 44 37 39 40 46 53 60 63 70 73 64 56 56 61 61 61 61 59 58 61 67 65 64 64
33 33 26 42 73 43 58 63 68 71 82 69 85 63 58 47 53 57 57 59 62 60 60 58 56 58 59 60 61 62 62 63 68 71 72 76 77 73
58 38 31 58 46 62 61 69 91 90 90 94 83 72 57 53 63 74 69 65 61 62 58 59 62 63 65 67 68 68 70 71 72 73 76 78 76 71
26 30 31 33 65 71 85 93 96 100 99 89 75 80 56 58 62 70 81 82 74 68 67 63 63 65 66 67 73 75 73 71 72 75 79 82 74 63
28 31 38 61 71 97 100 98 100 100 88 87 92 73 64 63 66 67 71 79 85 83 78 76 72 72 76 79 78 75 70 71 72 77 81 74 58 54
35 47 63 76 100 100 100 100 100 90 95 94 90 69 64 72 71 70 72 71 72 74 78 75 76 77 76 76 74 73 74 72 76 79 70 51 49 47
68 89 93 100 100 100 100 100 100 97 97 100 82 68 62 64 75 79 79 79 78 72 68 69 74 79 75 74 72 73 76 77 76 61 45 42 37 34
84 92 92 100 100 100 100 100 96 100 100 99 81 74 68 70 75 80 78 76 83 77 73 71 74 76 72 72 75 80 77 73 61 42 38 29 24 24
86 99 100 100 100 100 100 99 90 94 100 84 81 73 69 74 76 75 79 81 86 84 74 73 78 75 75 83 90 80 71 48 36 32 25 23 22 22
100 100 100 100 100 100 100 92 93 100 95 91 71 69 76 74 66 75 80 84 85 86 81 76 76 80 88 94 87 66 38 34 27 21 20 19 21 23
100 100 100 100 100 100 100 99 90 88 81 71 73 80 78 70 72 80 88 90 89 86 80 77 78 84 88 84 60 34 30 24 20 18 19 22 21 18
100 100 99 100 100 99 92 90 87 77 74 77 80 83 78 82 90 93 93 91 87 82 77 81 83 84 82 54 37 29 20 19 17 19 20 17 14 10
100 100 100 97 91 86 89 74 75 82 86 80 87 87 90 97 98 96 96 90 83 77 78 76 76 69 43 38 32 19 17 16 20 23 15 13 15 11
100 93 93 95 88 84 82 89 87 88 89 89 91 94 97 97 98 93 89 84 82 80 77 69 50 36 36 26 24 17 16 20 22 17 19 21 15 13
90 90 91 90 91 88 89 90 91 89 87 90 93 94 98 97 95 91 86 84 82 79 63 36 33 30 23 21 18 19 18 20 24 31 37 34 28 24
88 90 91 94 98 98 93 93 94 94 95 94 95 100 98 95 89 87 82 77 71 48 36 35 26 22 19 17 19 21 22 21 21 47 45 42 37 37
89 93 94 95 99 100 100 100 98 94 94 98 98 94 96 91 93 86 75 65 42 38 34 26 22 19 18 19 20 22 23 20 29 50 51 50 53 55
Wind_Speed
102 101 103 105 108 110 112 116 114 119 107 114 113 107 103 92 94 86 82 80 77 74 65 61 59 56 52 49 49 48 48 46 43 40 36 30 35 59
107 108 110 110 111 113 113 117 118 114 114 109 103 101 94 94 90 84 80 78 73 66 61 59 56 53 50 48 48 48 45 48 40 37 31 21 25 47
112 112 112 112 115 116 118 114 111 112 111 99 98 90 90 88 85 81 78 72 66 61 58 55 53 50 49 48 45 47 45 38 36 31 27 23 17 46
115 115 115 112 116 114 113 102 108 105 95 89 85 84 86 83 80 77 71 66 62 56 53 51 49 48 47 46 44 42 40 36 38 37 33 26 22 33
116 114 115 114 108 102 105 102 96 87 86 81 83 83 83 79 76 70 64 59 56 51 49 48 47 48 48 45 41 37 38 39 38 36 36 34 29 34
106 107 104 97 99 98 92 90 82 83 80 78 81 78 78 76 69 63 58 54 50 49 47 47 48 48 46 42 42 41 38 38 38 38 38 38 38 38
94 90 88 89 85 83 78 79 81 74 73 77 74 76 74 69 61 56 54 52 50 49 49 48 46 45 45 43 42 42 42 43 44 44 44 45 46 45
84 85 81 79 76 77 73 75 73 72 74 71 74 75 72 64 57 54 50 46 45 44 44 47 48 47 46 47 46 47 49 50 51 52 52 51 52 53
81 78 77 79 75 70 70 69 69 68 67 68 73 75 69 61 56 54 53 51 51 51 50 49 50 51 51 52 53 55 57 58 58 59 60 60 58 56
75 74 73 70 64 66 66 66 64 65 67 71 72 70 69 61 57 56 56 57 57 56 56 55 55 56 57 59 60 61 63 63 64 65 66 66 64 63
71 68 65 63 62 62 64 62 63 65 70 69 69 69 68 66 60 58 58 59 59 60 61 61 60 60 61 62 64 67 68 68 70 71 71 69 65 63
61 59 61 59 59 65 58 62 66 70 69 69 70 69 67 63 62 61 60 61 61 63 64 66 66 66 65 67 69 71 71 72 74 74 72 68 63 61
57 57 59 59 59 57 61 62 66 69 69 69 72 69 68 63 60 60 62 63 64 65 65 66 65 66 68 70 72 73 75 77 78 74 69 63 58 57
58 59 57 54 58 62 64 66 68 69 69 71 73 73 72 69 64 64 64 65 65 64 66 65 66 67 70 74 75 77 79 78 77 73 64 60 60 60
57 54 55 56 57 61 65 66 70 69 69 72 74 76 75 69 65 66 65 66 65 65 65 66 67 70 73 76 80 83 81 77 69 61 60 63 64 62
51 55 56 58 62 65 66 69 69 68 70 74 77 75 71 68 67 67 66 67 67 67 67 68 70 73 76 80 84 83 77 68 61 61 62 62 63 63
56 59 57 59 63 66 70 71 73 72 74 75 76 71 69 70 69 67 68 68 69 69 69 71 73 75 79 83 83 76 67 62 62 62 61 61 62 61
58 59 62 63 66 66 71 73 73 73 75 76 69 70 70 65 68 70 69 70 71 71 71 71 74 77 80 82 75 67 63 61 61 60 58 56 57 53
63 66 68 70 74 72 71 71 72 76 74 71 70 65 65 67 69 70 72 72 72 72 72 73 75 76 76 71 68 63 62 59 54 55 53 49 47 44
65 66 66 65 67 69 71 74 74 70 70 66 66 66 67 67 69 70 70 69 70 71 73 74 75 72 65 61 64 64 57 54 50 48 44 40 37 34
62 63 65 66 70 72 69 68 69 68 66 65 64 65 66 68 69 69 69 69 71 73 76 74 68 62 61 59 58 60 54 45 44 41 36 30 25 21
65 67 67 66 66 68 68 67 66 65 62 63 65 66 69 72 72 72 73 74 74 75 74 68 63 62 61 57 56 54 53 44 36 31 28 25 21 18
63 64 66 66 66 66 65 63 60 61 63 64 67 71 73 73 73 74 74 74 74 72 65 64 63 62 60 55 52 51 49 40 33 29 26 24 20 20
Wind_Direction
280 285 287 290 293 295 296 296 297 299 301 303 304 304 305 304 304 305 306 306 306 305 304 303 303 300 299 298 301 304 307 310 315 313 304 291 254 225
281 284 288 290 292 294 295 296 297 299 299 301 302 302 303 303 304 306 306 306 305 304 301 301 298 298 298 300 301 304 311 313 320 324 328 320 242 221
282 285 288 289 290 292 293 294 295 297 298 298 299 301 301 303 306 306 306 304 302 301 300 298 297 298 298 299 301 305 309 310 313 318 326 322 280 225
283 284 287 288 288 291 292 292 293 295 296 297 299 299 301 304 306 305 304 302 302 301 300 298 297 296 296 298 300 305 307 309 311 314 310 304 289 246
281 283 284 285 286 288 288 291 292 293 296 295 297 299 301 305 305 305 303 302 301 301 300 299 297 297 298 299 301 302 302 303 303 301 299 295 284 261
279 280 281 283 283 285 289 288 291 292 293 294 297 298 302 306 306 304 303 301 301 300 299 298 297 297 298 300 300 300 300 299 298 296 293 289 281 272
277 276 279 283 283 283 285 288 290 290 293 294 296 298 304 306 304 304 304 303 301 301 300 299 297 297 299 299 299 300 301 303 303 301 296 291 284 275
279 278 282 280 282 283 285 286 288 291 293 293 297 300 305 305 304 307 307 305 302 300 299 297 298 298 298 299 298 298 300 300 300 300 299 294 286 280
278 280 279 278 280 280 283 286 288 290 290 294 297 301 304 304 300 300 300 300 299 300 300 298 297 297 297 298 298 299 300 300 300 300 300 297 291 282
275 277 277 277 276 279 282 287 286 287 290 293 298 300 304 304 300 296 296 297 298 298 297 296 297 298 299 300 301 300 300 300 300 300 301 299 294 289
273 275 274 271 275 278 281 284 286 287 291 295 296 300 304 303 302 298 296 296 296 296 296 297 298 299 299 300 300 299 300 301 302 303 302 299 294 288
271 268 271 274 276 278 279 281 285 288 291 293 295 300 303 301 301 299 298 297 296 295 295 296 296 297 297 297 299 300 300 302 303 302 300 297 292 286
268 269 271 273 274 275 278 282 283 288 291 292 295 299 303 300 301 300 299 298 296 295 295 296 296 295 297 297 298 299 302 304 304 302 300 295 289 284
264 267 271 272 271 276 280 281 284 288 288 290 296 298 301 302 299 300 299 299 299 296 295 295 296 296 296 298 299 301 303 304 303 301 297 291 288 285
267 267 267 271 273 275 280 283 285 287 287 290 294 299 302 300 298 299 300 300 300 298 297 296 297 297 298 300 301 303 304 303 301 297 293 291 289 286
266 267 269 273 275 277 281 283 287 286 288 291 295 300 299 297 298 300 300 301 300 299 297 296 297 299 300 301 301 303 303 301 299 296 294 291 288 286
265 269 271 273 277 278 281 283 285 285 288 294 297 297 297 297 298 299 301 300 299 298 297 297 298 299 301 301 302 302 301 301 299 297 295 292 288 284
266 268 273 275 273 276 281 283 284 290 293 296 297 297 297 298 299 300 299 299 298 298 297 298 299 301 302 303 303 301 301 301 300 298 296 291 287 284
265 267 269 272 276 280 281 285 290 292 294 295 297 296 298 299 299 300 299 298 297 298 299 299 301 302 303 304 302 301 301 301 302 299 295 297 294 289
272 273 274 274 276 281 285 287 290 291 294 295 296 297 297 300 301 301 301 299 300 301 301 302 303 304 303 303 302 301 302 304 304 297 300 298 294 290
270 274 277 280 282 284 286 287 290 292 293 295 294 295 298 299 301 303 303 303 304 304 304 305 305 304 304 303 302 301 302 304 300 297 300 301 299 292
274 276 278 280 283 285 287 289 290 292 292 293 295 297 299 300 301 302 303 305 305 305 306 306 305 305 303 302 302 302 302 304 293 285 287 291 293 291
278 280 281 283 284 285 287 288 289 290 292 294 295 298 300 300 301 302 304 305 305 306 306 306 306 304 302 303 302 301 299 294 281 273 277 280 279 275